Location: Gad�tanya
(48.0500°N, 20.8500°E)
Time: 11:53:08
(UTC+00:00)

EO 1 Del DPAF - Pass Details

Date: 05 July 2020
Orbit: 512 x 518 km, 98.0° (Epoch: 14 August)

Event Time Altitude Azimuth Distance (km) Brightness Sun altitude
Rises 21:03:23 0° 20° (NNE) 2,645 7.5 -15.9°
Reaches altitude 10° 21:05:37 10° 29° (NNE) 1,752 6.4 -16.1°
Maximum altitude 21:09:08 37° 98° (E) 813 3.9 -16.3°
Enters shadow 21:10:02 32° 131° (SE) 902 3.9 -16.4°
